COSMOS 1275 DEB, 12741

Orbit data source: Space-Track

COSMOS 1275 DEB, 12741 is space debris in LEO originally from a launch on Thu, 04 Jun 1981 UTC launched from the Plesetsk Missile And Space Complex (PKMTR). Debris objects in space refer to the collection of defunct objects orbiting the Earth. Examples of debris include non-operational satellites, rocket bodies, and fragments generated from explosions, collisions, or faulty payload assembly.

Loading next visibility...
Identifier
12741, 1981-053CJ
Orbit
LEO
Country
Flag of CISCIS
Related business
Manufacturer
Unknown
Mission
Spacecraft
Bus & Motor
Unknown
Mass
Unknown
Launch date (UTC)
1981-06-04 (45 years ago)
Launch vehicle
Unknown
Launch site
Plesetsk Missile And Space Complex (PKMTR)
Object type
Payload
Rocket body
Debris
Shape & HBR
Unknown shape, 0.1 m
Radar Cross Section
Small (<0.1 m²)

Expand to show TLE details & history
Last TLE update: 21 hours ago

TLE from 21 hours ago
0 COSMOS 1275 DEB
1 12741U 81053CJ  26034.05236979  .00000736  00000-0  57091-3 0  9999
2 12741  82.9445 232.8225 0064680  93.3979  67.2177 13.90338240242211
Epoch: 2026-02-03T01:15Z
TLE epoch observation values (Epoch: 2026-02-03T01:15:24.749Z)
Latitude
18.54719°
Longitude
-101.6369°
Altitude
911.807 km
Speed
7.407 km/s
True Right ascension
03h 21m 49s
True Declination
18° 26' 45"
Sunlit
Object was in daylight at epoch
Visualization orbit readout
Latitude
Unknown
Longitude
Unknown
Altitude
Unknown
Speed
Unknown
Apparent Right ascension
Unknown
Apparent Declination
Unknown
Sunlit
N/A
Visualization observer readout
Local Sidereal Time
00:13:10
Azimuth
Unknown
Elevation
Unknown
Doppler factor
Unknown
Orbital elements
Apogee altitude
971.807 km
Perigee altitude
877.339 km
Semi-major axis
7,302.71 km
Eccentricity
0.00647
Inclination
82.9445°
RAAN
232.8225°
Arg. of periapsis
93.3979°
True anomaly
67.90318°
Mean anomaly
67.2177°
Eccentric anomaly
67.56023°
Mean motion
3.4779 °/min
Orbital period
103.51 mins
BSTAR
0.00057091
Loading maneuver chart data...
Computing Atmospheric mass density...
Loading historical data...
Loading historical data...
Loading historical data...
Loading historical data...
Loading historical data...
Loading historical data...
Loading historical data...

Documentation

Showing up to 5 results
|